Regional Weather Roundup
Issued by NWS Upton, NY

Current Version | Previous Version | Text Only | Print | Product List | Glossary Off
Versions: 1 2 3 4 5 6 7 8 9 10 11 12 13 14 15 16 17 18 19 20 21 22 23 24 25 26 27 28 29 30 31 32 33 34 35 36 37 38 39 40 41 42 43 44 45 46 47 48 49 50
000 ASUS41 KOKX 201205 RWROKX REGIONAL WEATHER ROUNDUP NATIONAL WEATHER SERVICE NEW YORK NY 800 AM EDT MON OCT 20 2014 NOTE: "FAIR" INDICATES FEW OR NO CLOUDS BELOW 12,000 FEET WITH NO SIGNIFICANT WEATHER AND/OR OBSTRUCTIONS TO VISIBILITY. NYZ071-072-176-178-NJZ106-104-201300- NEW YORK CITY METRO AREA CITY SKY/WX TMP DP RH WIND PRES REMARKS CENTRAL PARK MOCLDY 44 29 55 W6 30.13R LAGUARDIA APRT MOCLDY 45 30 55 SW5 30.11R KENNEDY INTL MOCLDY 45 31 58 W8 30.12R NEWARK/LIBERTY MOCLDY 41 31 67 SW8 30.12R BRNX BOT. GARD N/A 43 32 65 W3 30.13R TETERBORO MOCLDY 39 30 70 SE3 30.11R $$ NYZ177-179-078>081-201300- LONG ISLAND NEW YORK CITY SKY/WX TMP DP RH WIND PRES REMARKS FARMINGDALE MOCLDY 40 32 73 W5 30.12R ISLIP MOCLDY 39 32 76 W5 30.09R SHIRLEY PTCLDY 38 32 79 W5 30.11 WCI 34 WESTHAMPTON PTCLDY 32 27 81 CALM 30.12R MONTAUK POINT N/A 47 34 60 W6 30.10R $$ NYZ052-065-067-201300- HUDSON VALLEY CITY SKY/WX TMP DP RH WIND PRES REMARKS WHITE PLAINS MOCLDY 37 32 82 CALM 30.09R NEWBURGH MOCLDY 36 30 80 W7 30.08R WCI 30 MONTGOMERY PTCLDY 35 30 82 S5 30.07S WCI 31 POUGHKEEPSIE MOCLDY 37 33 85 CALM 30.09R ALBANY MOCLDY 36 31 82 S6 30.06R WCI 31 $$ NJZ001-105-106-008-010-013-015-019>022-104-201300- NEW JERSEY CITY SKY/WX TMP DP RH WIND PRES REMARKS NEWARK/LIBERTY MOCLDY 41 31 67 SW8 30.12R TETERBORO MOCLDY 39 30 70 SE3 30.11R CALDWELL MOCLDY 37 29 72 CALM 30.11S MORRISTOWN PTCLDY 34 32 93 CALM 30.11R SOMERVILLE PTCLDY 32 29 88 CALM 30.11R SUSSEX PTCLDY 33 30 88 CALM 30.08S ANDOVER N/A 33 31 92 CALM 30.09S TRENTON CLEAR 34 31 88 CALM 30.12R MILLVILLE CLEAR 33 31 92 CALM 30.14R ATLANTIC CITY CLEAR 33 31 92 CALM 30.13S WRIGHTSTOWN CLEAR 35 29 78 CALM 30.11S TOMS RIVER CLEAR 30 27 86 CALM 30.14R BELMAR CLEAR 37 25 60 SW6 30.12R WCI 33 $$ PAZ047>061-062-071-201300- EASTERN PENNSYLVANIA CITY SKY/WX TMP DP RH WIND PRES REMARKS PHILADELPHIA PTCLDY 41 31 67 CALM 30.13S ALLENTOWN PTCLDY 35 32 88 CALM 30.10S SCRANTON PTCLDY 34 29 82 SE5 30.05S WCI 30 $$ CTZ002-004>006-009-010-012-RIZ004-006-007-MAZ004-011-015-201300- SOUTHERN NEW ENGLAND IN CT CITY SKY/WX TMP DP RH WIND PRES REMARKS BRADLEY INTL PTCLDY 35 30 82 S5 30.06R WCI 31 HARTFORD FAIR 36 31 82 S3 30.08R DANBURY PTCLDY 33 29 85 CALM 30.10R WTRBRY/OXFORD CLEAR 34 25 69 CALM 30.07S BRIDGEPORT PTCLDY 40 33 76 W3 30.10R MERIDEN PTCLDY 33 30 88 CALM 30.09R NEW HAVEN PTCLDY 45 33 63 NW3 30.09S CHESTER FAIR 36 30 80 W3 30.08R GROTON CLEAR 38 31 76 W5 30.09R WCI 34 WILLIMANTIC CLEAR 32 28 85 CALM 30.08R IN RI CITY SKY/WX TMP DP RH WIND PRES REMARKS PROVIDENCE PTCLDY 36 28 73 SW6 30.09R WCI 31 BLOCK ISLAND PTCLDY 43 30 61 NW6 30.08S WESTERLY CLEAR 35 30 82 CALM 30.10R IN MA CITY SKY/WX TMP DP RH WIND PRES REMARKS BOSTON PTCLDY 39 28 64 SW10 30.05R WCI 32 WORCESTER CLEAR 31 26 82 SW8 30.02R WCI 23 WESTFIELD PTCLDY 33 31 92 S3 30.06R PROVINCETOWN CLEAR 43 28 56 W13 30.05R NANTUCKET SUNNY 43 30 60 W7 30.07R $$ ANZ330-335-338-340-345-350-353-355-201300- COASTAL MARINE OBSERVATIONS STATION/POSITION TIME SKY/WX TEMP WIND PRES VSBY WAVE AIR SEA DIR/SP/G HT/PER (UTC) (F) (DEG/KT/KT) (MB) (MI) (FT/S) NY HARB ENTRANCE NOT AVBL 4S FIRE IS 1200 63 N/A 2/11 20S FIRE ISLAND 1200 50 63 290/ 8/ 12 1019.8 2/11 23SW MTP 1200 N/A 2/11 HUDSON CANYON 1200 52 65 310/ 16/ 17 1019.6 4/ 5 EXECUTION ROCKS 1200 46 64 250/ 8/ 12 N/A WESTERN LI SOUND 1200 46 270/ 10/ 16 N/A 1/ 3 CENTRAL LI SOUND 1100 48 64 280/ 8/ 14 N/A 1 EASTERN LI SOUND 1100 46 64 280/ 12/ 16 N/A ROBBINS REEF 1200 43 260/ 11/ 13 1018.3 $$ >>>>>>>>>>>>>>>>>>>>>>>>>>>> KEY <<<<<<<<<<<<<<<<<<<<<<<<<<< > < > SKY/WX - SKY CONDITION/PRESENT WEATHER < > TMP - TEMPERATURE IN FAHRENHEIT < > DP - DEWPOINT IN FAHRENHEIT < > RH - RELATIVE HUMIDITY IN PERCENT < > WIND - DIRECTION AND SPEED IN MPH < > PRES - MEAN SEA LEVEL PRESSURE IN INCHES OF HG < > WCI - WIND CHILL INDEX < > VSB - VISIBILITY IN MILES < > HX - HEAT INDEX < > TC - TEMPERATURE IN CELSIUS < > VRB - VARIABLE WIND DIRECTION < > < >>>>>>>>>>>>>>>>>>>>>>>>>>>> KEY <<<<<<<<<<<<<<<<<<<<<<<<<<<

USA.gov is the U.S. government's official web portal to all federal, state and local government web resources and services.